When you browse on this site, cookies collect data to enhance your experience and personalize the content and advertising you see.
Visit our Privacy Policy to learn more. By continuing to use the site, you agree to this use of cookies and data.
  • En España
  • Lista de países
  • Para 7 días
  • Temperatura del agua
  • El tiempo en el mapa
  • Informadores
  • user-avatar
    Iniciar sesión

    Tiempo cada hora Sarh

    Hoy, 17 Octubre, Jueves

    Tiempo Temperatura Precipitaciones Viento Presión Humedad
    00:00 +24°C° 1 mm 1 mps 727 mmHg 94%
    01:00 +22°C° 0 mm 0 mps 727 mmHg 92%
    02:00 +22°C° 0 mm 0 mps 726 mmHg 92%
    03:00 +22°C° 0 mm 0 mps 726 mmHg 92%
    04:00 +22°C° 0 mm 0 mps 726 mmHg 92%
    05:00 +22°C° 0 mm 0 mps 727 mmHg 91%
    06:00 +23°C° 0 mm 0 mps 727 mmHg 91%
    07:00 +25°C° 0 mm 1 mps 728 mmHg 90%
    08:00 +27°C° 0 mm 1 mps 728 mmHg 82%
    09:00 +29°C° 0 mm 1 mps 728 mmHg 74%
    10:00 +31°C° 0 mm 1 mps 728 mmHg 66%
    11:00 +32°C° 0 mm 1 mps 727 mmHg 63%
    12:00 +33°C° 0 mm 1 mps 727 mmHg 60%
    13:00 +32°C° 0 mm 2 mps 726 mmHg 59%
    14:00 +32°C° 0.2 mm 1 mps 726 mmHg 63%
    15:00 +31°C° 0.2 mm 1 mps 725 mmHg 66%
    16:00 +31°C° 0.2 mm 1 mps 725 mmHg 70%
    17:00 +30°C° 0.5 mm 1 mps 725 mmHg 75%
    18:00 +28°C° 0.5 mm 1 mps 726 mmHg 79%
    19:00 +26°C° 0.5 mm 1 mps 726 mmHg 83%
    20:00 +26°C° 0.8 mm 1 mps 727 mmHg 85%
    21:00 +26°C° 0.8 mm 1 mps 727 mmHg 86%
    22:00 +23°C° 0.8 mm 0 mps 727 mmHg 88%
    23:00 +23°C° 0.4 mm 0 mps 727 mmHg 89%

    Mañana, 18 Octubre, Viernes

    Tiempo Temperatura Precipitaciones Viento Presión Humedad
    00:00 +23°C° 0.4 mm 0 mps 726 mmHg 89%
    01:00 +23°C° 0.4 mm 0 mps 726 mmHg 90%
    02:00 +23°C° 0 mm 0 mps 726 mmHg 91%
    03:00 +22°C° 0 mm 0 mps 726 mmHg 92%
    04:00 +22°C° 0 mm 0 mps 725 mmHg 92%
    05:00 +23°C° 0 mm 0 mps 726 mmHg 91%
    06:00 +23°C° 0 mm 0 mps 726 mmHg 90%
    07:00 +24°C° 0 mm 0 mps 727 mmHg 89%
    08:00 +26°C° 0 mm 0 mps 727 mmHg 82%
    09:00 +30°C° 0 mm 1 mps 727 mmHg 74%
    10:00 +32°C° 0 mm 1 mps 727 mmHg 67%
    11:00 +32°C° 1.4 mm 1 mps 727 mmHg 66%
    12:00 +33°C° 1.4 mm 1 mps 726 mmHg 66%
    13:00 +31°C° 1.4 mm 0 mps 725 mmHg 65%
    14:00 +30°C° 2.7 mm 0 mps 724 mmHg 70%
    15:00 +29°C° 2.7 mm 0 mps 723 mmHg 76%
    16:00 +28°C° 2.7 mm 0 mps 723 mmHg 81%
    17:00 +27°C° 0.2 mm 0 mps 723 mmHg 83%
    18:00 +26°C° 0.2 mm 0 mps 724 mmHg 84%
    19:00 +25°C° 0.2 mm 0 mps 725 mmHg 85%
    20:00 +24°C° 0 mm 0 mps 725 mmHg 86%
    21:00 +24°C° 0 mm 0 mps 725 mmHg 87%
    22:00 +24°C° 0 mm 0 mps 725 mmHg 87%
    23:00 +24°C° 0 mm 0 mps 725 mmHg 88%

    Pasado mañana, 19 Octubre, Sábado

    Tiempo Temperatura Precipitaciones Viento Presión Humedad
    00:00 +26°C° 0 mm 1 mps 725 mmHg 89%
    01:00 +25°C° 0 mm 1 mps 725 mmHg 90%
    02:00 +25°C° 0.2 mm 1 mps 725 mmHg 91%
    03:00 +25°C° 0.2 mm 1 mps 725 mmHg 92%
    04:00 +25°C° 0.2 mm 2 mps 724 mmHg 93%
    05:00 +24°C° 1.5 mm 2 mps 725 mmHg 93%
    06:00 +24°C° 1.5 mm 2 mps 726 mmHg 94%
    07:00 +24°C° 1.5 mm 2 mps 727 mmHg 94%
    08:00 +26°C° 0 mm 2 mps 727 mmHg 88%
    09:00 +27°C° 0 mm 1 mps 727 mmHg 82%
    10:00 +29°C° 0 mm 1 mps 727 mmHg 76%
    11:00 +30°C° 0.9 mm 1 mps 726 mmHg 74%
    12:00 +31°C° 0.9 mm 1 mps 725 mmHg 72%
    13:00 +30°C° 0.9 mm 0 mps 724 mmHg 70%
    14:00 +30°C° 1 mm 0 mps 724 mmHg 74%
    15:00 +29°C° 1 mm 0 mps 724 mmHg 77%
    16:00 +29°C° 1 mm 0 mps 724 mmHg 80%
    17:00 +27°C° 0.2 mm 0 mps 724 mmHg 82%
    18:00 +26°C° 0.2 mm 0 mps 725 mmHg 83%
    19:00 +25°C° 0.2 mm 0 mps 725 mmHg 85%
    20:00 +24°C° 0.8 mm 0 mps 725 mmHg 87%
    21:00 +24°C° 0.8 mm 0 mps 726 mmHg 89%
    22:00 +23°C° 0.8 mm 0 mps 726 mmHg 91%
    23:00 +25°C° 0.3 mm 1 mps 726 mmHg 92%

    20 Octubre, Domingo

    Tiempo Temperatura Precipitaciones Viento Presión Humedad
    00:00 +25°C° 0.3 mm 1 mps 726 mmHg 93%
    01:00 +25°C° 0.3 mm 1 mps 726 mmHg 93%
    02:00 +24°C° 0.1 mm 1 mps 726 mmHg 94%
    03:00 +24°C° 0.1 mm 1 mps 725 mmHg 95%
    04:00 +22°C° 0.1 mm 0 mps 725 mmHg 95%
    05:00 +24°C° 0 mm 1 mps 726 mmHg 95%
    06:00 +25°C° 0 mm 1 mps 727 mmHg 94%
    07:00 +25°C° 0 mm 1 mps 727 mmHg 94%
    08:00 +26°C° 0.5 mm 1 mps 727 mmHg 90%
    09:00 +27°C° 0.5 mm 2 mps 728 mmHg 87%
    10:00 +28°C° 0.5 mm 2 mps 728 mmHg 83%
    11:00 +29°C° 0.1 mm 2 mps 727 mmHg 78%
    12:00 +30°C° 0.1 mm 2 mps 726 mmHg 74%
    13:00 +31°C° 0.1 mm 2 mps 726 mmHg 69%
    14:00 +30°C° 2.2 mm 2 mps 725 mmHg 75%
    15:00 +29°C° 2.2 mm 2 mps 725 mmHg 82%
    16:00 +27°C° 2.2 mm 2 mps 725 mmHg 88%
    17:00 +26°C° 0.7 mm 2 mps 725 mmHg 90%
    18:00 +26°C° 0.7 mm 1 mps 726 mmHg 91%
    19:00 +25°C° 0.7 mm 1 mps 726 mmHg 93%
    20:00 +25°C° 0.5 mm 1 mps 726 mmHg 93%
    21:00 +24°C° 0.5 mm 1 mps 727 mmHg 94%
    22:00 +24°C° 0.5 mm 1 mps 727 mmHg 95%
    23:00 +24°C° 0 mm 1 mps 727 mmHg 94%

    21 Octubre, Lunes

    Tiempo Temperatura Precipitaciones Viento Presión Humedad
    00:00 +24°C° 0 mm 1 mps 727 mmHg 94%
    01:00 +24°C° 0 mm 1 mps 726 mmHg 94%
    02:00 +24°C° 0.1 mm 1 mps 726 mmHg 95%
    03:00 +24°C° 0.1 mm 1 mps 726 mmHg 96%
    04:00 +24°C° 0.1 mm 1 mps 726 mmHg 97%
    05:00 +24°C° 0.1 mm 1 mps 727 mmHg 97%
    06:00 +24°C° 0.1 mm 2 mps 727 mmHg 96%
    07:00 +24°C° 0.1 mm 2 mps 727 mmHg 96%
    08:00 +26°C° 0 mm 2 mps 727 mmHg 89%
    09:00 +27°C° 0 mm 2 mps 728 mmHg 83%
    10:00 +29°C° 0 mm 2 mps 728 mmHg 77%
    11:00 +30°C° 0 mm 1 mps 727 mmHg 72%
    12:00 +32°C° 0 mm 1 mps 726 mmHg 67%
    13:00 +33°C° 0 mm 1 mps 726 mmHg 62%
    14:00 +32°C° 1.3 mm 1 mps 725 mmHg 69%
    15:00 +31°C° 1.3 mm 1 mps 725 mmHg 75%
    16:00 +30°C° 1.3 mm 1 mps 725 mmHg 81%
    17:00 +29°C° 1.1 mm 1 mps 725 mmHg 84%
    18:00 +27°C° 1.1 mm 1 mps 725 mmHg 87%
    19:00 +26°C° 1.1 mm 1 mps 725 mmHg 89%
    20:00 +24°C° 0.1 mm 0 mps 725 mmHg 90%
    21:00 +24°C° 0.1 mm 0 mps 726 mmHg 90%
    22:00 +24°C° 0.1 mm 0 mps 726 mmHg 90%
    23:00 +24°C° 0 mm 0 mps 726 mmHg 91%

    22 Octubre, Martes

    Tiempo Temperatura Precipitaciones Viento Presión Humedad
    00:00 +26°C° 0 mm 1 mps 725 mmHg 91%
    01:00 +25°C° 0 mm 1 mps 725 mmHg 92%
    02:00 +25°C° 0.9 mm 1 mps 725 mmHg 93%
    03:00 +25°C° 0.9 mm 1 mps 725 mmHg 94%
    04:00 +25°C° 0.9 mm 1 mps 725 mmHg 95%
    05:00 +25°C° 0.3 mm 1 mps 725 mmHg 95%
    06:00 +25°C° 0.3 mm 1 mps 726 mmHg 95%
    07:00 +25°C° 0.3 mm 1 mps 726 mmHg 96%
    08:00 +25°C° 0.2 mm 1 mps 726 mmHg 94%
    09:00 +26°C° 0.2 mm 1 mps 727 mmHg 93%
    10:00 +26°C° 0.2 mm 1 mps 727 mmHg 91%
    11:00 +27°C° 0.1 mm 1 mps 726 mmHg 85%
    12:00 +29°C° 0.1 mm 1 mps 725 mmHg 79%
    13:00 +30°C° 0.1 mm 2 mps 724 mmHg 74%
    14:00 +30°C° 0 mm 1 mps 724 mmHg 73%
    15:00 +30°C° 0 mm 1 mps 724 mmHg 73%
    16:00 +30°C° 0 mm 1 mps 724 mmHg 72%
    17:00 +27°C° 0.1 mm 0 mps 724 mmHg 76%
    18:00 +26°C° 0.1 mm 0 mps 724 mmHg 81%
    19:00 +24°C° 0.1 mm 0 mps 724 mmHg 85%
    20:00 +24°C° 0 mm 0 mps 725 mmHg 86%
    21:00 +24°C° 0 mm 0 mps 725 mmHg 87%
    22:00 +23°C° 0 mm 0 mps 726 mmHg 89%
    23:00 +23°C° 0 mm 0 mps 725 mmHg 89%
    Mostrar más